Time,TemperatureF,DewpointF,PressureIn,WindDirection,WindDirectionDegrees,WindSpeedMPH,WindSpeedGustMPH,Humidity,HourlyPrecipIn,Conditions,Clouds,dailyrainin,SolarRadiationWatts/m^2,SoftwareType,DateUTC
2013-07-07 00:01:00,71.0,67.0,-100.00,SSW,212,5.0,9.0,87,0.00,,,0.03,0.000000,,2013-07-07 05:01:00,
2013-07-07 00:21:00,71.0,67.0,-100.00,SSW,212,5.0,9.0,87,0.00,,,0.03,0.000000,,2013-07-07 05:21:00,
2013-07-07 00:31:00,71.0,67.0,-100.00,SSW,212,5.0,9.0,87,0.00,,,0.03,0.000000,,2013-07-07 05:31:00,
2013-07-07 00:41:00,71.0,67.0,-100.00,SSW,212,5.0,9.0,87,0.00,,,0.03,0.000000,,2013-07-07 05:41:00,
2013-07-07 00:51:00,71.0,67.0,-100.00,SSW,212,5.0,9.0,87,0.00,,,0.03,0.000000,,2013-07-07 05:51:00,
2013-07-07 01:01:00,71.0,66.0,-100.00,NNW,339,7.0,13.0,85,0.00,,,0.03,0.000000,,2013-07-07 06:01:00,
2013-07-07 01:22:00,71.0,66.0,-100.00,NNW,339,7.0,13.0,85,0.00,,,0.03,0.000000,,2013-07-07 06:22:00,
2013-07-07 01:32:00,71.0,66.0,-100.00,NNW,339,7.0,13.0,85,0.00,,,0.03,0.000000,,2013-07-07 06:32:00,
2013-07-07 01:43:00,71.0,66.0,-100.00,NNW,339,7.0,13.0,85,0.00,,,0.03,0.000000,,2013-07-07 06:43:00,
2013-07-07 01:52:00,71.0,66.0,-100.00,NNW,339,7.0,13.0,85,0.00,,,0.03,0.000000,,2013-07-07 06:52:00,
2013-07-07 02:01:00,66.0,64.0,-100.00,ENE,76,3.0,19.0,94,0.00,,,0.03,0.000000,,2013-07-07 07:01:00,
2013-07-07 02:22:00,66.0,64.0,-100.00,ENE,76,3.0,19.0,94,0.00,,,0.03,0.000000,,2013-07-07 07:22:00,
2013-07-07 02:33:00,66.0,64.0,-100.00,ENE,76,3.0,19.0,94,0.00,,,0.03,0.000000,,2013-07-07 07:33:00,
2013-07-07 02:44:00,66.0,64.0,-100.00,ENE,76,3.0,19.0,94,0.00,,,0.03,0.000000,,2013-07-07 07:44:00,
2013-07-07 02:53:00,66.0,64.0,-100.00,ENE,76,3.0,19.0,94,0.00,,,0.03,0.000000,,2013-07-07 07:53:00,
2013-07-07 03:01:00,65.0,64.0,-100.00,SSW,209,3.0,7.0,97,0.21,,,0.24,0.000000,,2013-07-07 08:01:00,
2013-07-07 03:22:00,65.0,64.0,-100.00,SSW,209,3.0,7.0,97,0.21,,,0.24,0.000000,,2013-07-07 08:22:00,
2013-07-07 03:34:00,65.0,64.0,-100.00,SSW,209,3.0,7.0,97,0.21,,,0.24,0.000000,,2013-07-07 08:34:00,
2013-07-07 03:44:00,65.0,64.0,-100.00,SSW,209,3.0,7.0,97,0.21,,,0.24,0.000000,,2013-07-07 08:44:00,
2013-07-07 03:53:00,65.0,64.0,-100.00,SSW,209,3.0,7.0,97,0.21,,,0.24,0.000000,,2013-07-07 08:53:00,
2013-07-07 04:01:00,67.0,66.0,-100.00,SW,232,5.0,10.0,97,0.19,,,0.43,0.000000,,2013-07-07 09:01:00,
2013-07-07 04:22:00,67.0,66.0,-100.00,SW,232,5.0,10.0,97,0.19,,,0.43,0.000000,,2013-07-07 09:22:00,
2013-07-07 04:34:00,67.0,66.0,-100.00,SW,232,5.0,10.0,97,0.19,,,0.43,0.000000,,2013-07-07 09:34:00,
2013-07-07 04:43:00,67.0,66.0,-100.00,SW,232,5.0,10.0,97,0.19,,,0.43,0.000000,,2013-07-07 09:43:00,
2013-07-07 04:53:00,67.0,66.0,-100.00,SW,232,5.0,10.0,97,0.19,,,0.43,0.000000,,2013-07-07 09:53:00,
2013-07-07 05:01:00,68.0,67.0,-100.00,South,182,2.0,8.0,97,0.21,,,0.64,0.000000,,2013-07-07 10:01:00,
2013-07-07 05:23:00,68.0,67.0,-100.00,South,182,2.0,8.0,97,0.21,,,0.64,0.000000,,2013-07-07 10:23:00,
2013-07-07 05:32:00,68.0,67.0,-100.00,South,182,2.0,8.0,97,0.21,,,0.64,0.000000,,2013-07-07 10:32:00,
2013-07-07 05:43:00,68.0,67.0,-100.00,South,182,2.0,8.0,97,0.21,,,0.64,0.000000,,2013-07-07 10:43:00,
2013-07-07 05:52:00,68.0,67.0,-100.00,South,182,2.0,8.0,97,0.21,,,0.64,0.000000,,2013-07-07 10:52:00,
2013-07-07 06:01:00,66.0,65.0,-100.00,SSW,199,3.0,14.0,98,1.04,,,1.68,0.000000,,2013-07-07 11:01:00,
2013-07-07 06:23:00,66.0,65.0,-100.00,SSW,199,3.0,14.0,98,1.04,,,1.68,0.000000,,2013-07-07 11:23:00,
2013-07-07 06:34:00,66.0,65.0,-100.00,SSW,199,3.0,14.0,98,1.04,,,1.68,0.000000,,2013-07-07 11:34:00,
2013-07-07 06:43:00,66.0,65.0,-100.00,SSW,199,3.0,14.0,98,1.04,,,1.68,0.000000,,2013-07-07 11:43:00,
2013-07-07 06:53:00,66.0,65.0,-100.00,SSW,199,3.0,14.0,98,1.04,,,1.68,0.000000,,2013-07-07 11:53:00,
2013-07-07 07:01:00,65.0,64.0,-100.00,WSW,237,3.0,6.0,98,0.27,,,1.95,1.000000,,2013-07-07 12:01:00,
2013-07-07 07:22:00,65.0,64.0,-100.00,WSW,237,3.0,6.0,98,0.27,,,1.95,1.000000,,2013-07-07 12:22:00,
2013-07-07 07:34:00,65.0,64.0,-100.00,WSW,237,3.0,6.0,98,0.27,,,1.95,1.000000,,2013-07-07 12:34:00,
2013-07-07 07:43:00,65.0,64.0,-100.00,WSW,237,3.0,6.0,98,0.27,,,1.95,1.000000,,2013-07-07 12:43:00,
2013-07-07 07:52:00,65.0,64.0,-100.00,WSW,237,3.0,6.0,98,0.27,,,1.95,1.000000,,2013-07-07 12:52:00,
2013-07-07 08:01:00,64.0,63.0,-100.00,South,191,5.0,9.0,97,0.61,,,2.56,11.000000,,2013-07-07 13:01:00,
2013-07-07 08:22:00,64.0,63.0,-100.00,South,191,5.0,9.0,97,0.61,,,2.56,11.000000,,2013-07-07 13:22:00,
2013-07-07 08:34:00,64.0,63.0,-100.00,South,191,5.0,9.0,97,0.61,,,2.56,11.000000,,2013-07-07 13:34:00,
2013-07-07 08:43:00,64.0,63.0,-100.00,South,191,5.0,9.0,97,0.61,,,2.56,11.000000,,2013-07-07 13:43:00,
2013-07-07 08:52:00,64.0,63.0,-100.00,South,191,5.0,9.0,97,0.61,,,2.56,11.000000,,2013-07-07 13:52:00,
2013-07-07 09:01:00,66.0,64.0,-100.00,SW,217,2.0,7.0,92,0.00,,,2.56,106.000000,,2013-07-07 14:01:00,
2013-07-07 09:22:00,66.0,64.0,-100.00,SW,217,2.0,7.0,92,0.00,,,2.56,106.000000,,2013-07-07 14:22:00,
2013-07-07 09:34:00,66.0,64.0,-100.00,SW,217,2.0,7.0,92,0.00,,,2.56,106.000000,,2013-07-07 14:34:00,
2013-07-07 09:43:00,66.0,64.0,-100.00,SW,217,2.0,7.0,92,0.00,,,2.56,106.000000,,2013-07-07 14:43:00,
2013-07-07 09:53:00,66.0,64.0,-100.00,SW,217,2.0,7.0,92,0.00,,,2.56,106.000000,,2013-07-07 14:53:00,
2013-07-07 10:01:00,69.0,66.0,-100.00,WSW,237,4.0,9.0,89,0.00,,,2.56,204.000000,,2013-07-07 15:01:00,
2013-07-07 10:22:00,69.0,66.0,-100.00,WSW,237,4.0,9.0,89,0.00,,,2.56,204.000000,,2013-07-07 15:22:00,
2013-07-07 10:34:00,69.0,66.0,-100.00,WSW,237,4.0,9.0,89,0.00,,,2.56,204.000000,,2013-07-07 15:34:00,
2013-07-07 10:43:00,69.0,66.0,-100.00,WSW,237,4.0,9.0,89,0.00,,,2.56,204.000000,,2013-07-07 15:43:00,
2013-07-07 10:52:00,69.0,66.0,-100.00,WSW,237,4.0,9.0,89,0.00,,,2.56,204.000000,,2013-07-07 15:52:00,
2013-07-07 11:01:00,73.0,66.0,-100.00,SSW,201,6.0,13.0,79,0.00,,,2.56,481.000000,,2013-07-07 16:01:00,
2013-07-07 11:23:00,73.0,66.0,-100.00,SSW,201,6.0,13.0,79,0.00,,,2.56,481.000000,,2013-07-07 16:23:00,
2013-07-07 11:34:00,73.0,66.0,-100.00,SSW,201,6.0,13.0,79,0.00,,,2.56,481.000000,,2013-07-07 16:34:00,
2013-07-07 11:43:00,73.0,66.0,-100.00,SSW,201,6.0,13.0,79,0.00,,,2.56,481.000000,,2013-07-07 16:43:00,
2013-07-07 11:53:00,73.0,66.0,-100.00,SSW,201,6.0,13.0,79,0.00,,,2.56,481.000000,,2013-07-07 16:53:00,
2013-07-07 12:01:00,79.0,67.0,-100.00,SW,223,7.0,15.0,66,0.00,,,2.56,775.000000,,2013-07-07 17:01:00,
2013-07-07 12:22:00,79.0,67.0,-100.00,SW,223,7.0,15.0,66,0.00,,,2.56,775.000000,,2013-07-07 17:22:00,
2013-07-07 12:34:00,79.0,67.0,-100.00,SW,223,7.0,15.0,66,0.00,,,2.56,775.000000,,2013-07-07 17:34:00,
2013-07-07 12:43:00,79.0,67.0,-100.00,SW,223,7.0,15.0,66,0.00,,,2.56,775.000000,,2013-07-07 17:43:00,
2013-07-07 12:53:00,79.0,67.0,-100.00,SW,223,7.0,15.0,66,0.00,,,2.56,775.000000,,2013-07-07 17:53:00,
2013-07-07 13:01:00,83.0,68.0,-100.00,WSW,247,4.0,12.0,60,0.00,,,2.56,967.000000,,2013-07-07 18:01:00,
2013-07-07 13:33:00,83.0,68.0,-100.00,WSW,247,4.0,12.0,60,0.00,,,2.56,967.000000,,2013-07-07 18:33:00,
2013-07-07 13:43:00,83.0,68.0,-100.00,WSW,247,4.0,12.0,60,0.00,,,2.56,967.000000,,2013-07-07 18:43:00,
2013-07-07 13:53:00,83.0,68.0,-100.00,WSW,247,4.0,12.0,60,0.00,,,2.56,967.000000,,2013-07-07 18:53:00,
2013-07-07 14:01:00,84.0,68.0,-100.00,SW,225,5.0,10.0,58,0.00,,,2.56,916.000000,,2013-07-07 19:01:00,
2013-07-07 14:22:00,84.0,68.0,-100.00,SW,225,5.0,10.0,58,0.00,,,2.56,916.000000,,2013-07-07 19:22:00,
2013-07-07 14:34:00,84.0,68.0,-100.00,SW,225,5.0,10.0,58,0.00,,,2.56,916.000000,,2013-07-07 19:34:00,
2013-07-07 14:43:00,84.0,68.0,-100.00,SW,225,5.0,10.0,58,0.00,,,2.56,916.000000,,2013-07-07 19:43:00,
2013-07-07 14:54:00,84.0,68.0,-100.00,SW,225,5.0,10.0,58,0.00,,,2.56,916.000000,,2013-07-07 19:54:00,
2013-07-07 15:01:00,83.0,68.0,-100.00,NNW,333,3.0,8.0,61,0.00,,,2.56,521.000000,,2013-07-07 20:01:00,
2013-07-07 15:22:00,83.0,68.0,-100.00,NNW,333,3.0,8.0,61,0.00,,,2.56,521.000000,,2013-07-07 20:22:00,
2013-07-07 15:34:00,83.0,68.0,-100.00,NNW,333,3.0,8.0,61,0.00,,,2.56,521.000000,,2013-07-07 20:34:00,
2013-07-07 15:42:00,83.0,68.0,-100.00,NNW,333,3.0,8.0,61,0.00,,,2.56,521.000000,,2013-07-07 20:42:00,
2013-07-07 15:53:00,83.0,68.0,-100.00,NNW,333,3.0,8.0,61,0.00,,,2.56,521.000000,,2013-07-07 20:53:00,
2013-07-07 16:01:00,79.0,71.0,-100.00,NNE,23,3.0,11.0,76,0.00,,,2.56,352.000000,,2013-07-07 21:01:00,
2013-07-07 16:22:00,79.0,71.0,-100.00,NNE,23,3.0,11.0,76,0.00,,,2.56,352.000000,,2013-07-07 21:22:00,
2013-07-07 16:34:00,79.0,71.0,-100.00,NNE,23,3.0,11.0,76,0.00,,,2.56,352.000000,,2013-07-07 21:34:00,
2013-07-07 16:44:00,79.0,71.0,-100.00,NNE,23,3.0,11.0,76,0.00,,,2.56,352.000000,,2013-07-07 21:44:00,
2013-07-07 16:53:00,79.0,71.0,-100.00,NNE,23,3.0,11.0,76,0.00,,,2.56,352.000000,,2013-07-07 21:53:00,
2013-07-07 17:01:00,81.0,72.0,-100.00,ENE,66,4.0,7.0,73,0.00,,,2.56,319.000000,,2013-07-07 22:01:00,
2013-07-07 17:22:00,81.0,72.0,-100.00,ENE,66,4.0,7.0,73,0.00,,,2.56,319.000000,,2013-07-07 22:22:00,
2013-07-07 17:34:00,81.0,72.0,-100.00,ENE,66,4.0,7.0,73,0.00,,,2.56,319.000000,,2013-07-07 22:34:00,
2013-07-07 17:44:00,81.0,72.0,-100.00,ENE,66,4.0,7.0,73,0.00,,,2.56,319.000000,,2013-07-07 22:44:00,
2013-07-07 17:54:00,81.0,72.0,-100.00,ENE,66,4.0,7.0,73,0.00,,,2.56,319.000000,,2013-07-07 22:54:00,
2013-07-07 18:01:00,82.0,72.0,-100.00,ENE,76,5.0,8.0,71,0.00,,,2.56,454.000000,,2013-07-07 23:01:00,
2013-07-07 18:22:00,82.0,72.0,-100.00,ENE,76,5.0,8.0,71,0.00,,,2.56,454.000000,,2013-07-07 23:22:00,
2013-07-07 18:33:00,82.0,72.0,-100.00,ENE,76,5.0,8.0,71,0.00,,,2.56,454.000000,,2013-07-07 23:33:00,
2013-07-07 18:43:00,82.0,72.0,-100.00,ENE,76,5.0,8.0,71,0.00,,,2.56,454.000000,,2013-07-07 23:43:00,
2013-07-07 18:53:00,82.0,72.0,-100.00,ENE,76,5.0,8.0,71,0.00,,,2.56,454.000000,,2013-07-07 23:53:00,
2013-07-07 19:01:00,77.0,70.0,-100.00,ENE,70,7.0,11.0,78,0.00,,,2.56,272.000000,,2013-07-08 00:01:00,
2013-07-07 19:22:00,77.0,70.0,-100.00,ENE,70,7.0,11.0,78,0.00,,,2.56,272.000000,,2013-07-08 00:22:00,
2013-07-07 19:33:00,77.0,70.0,-100.00,ENE,70,7.0,11.0,78,0.00,,,2.56,272.000000,,2013-07-08 00:33:00,
2013-07-07 19:43:00,77.0,70.0,-100.00,ENE,70,7.0,11.0,78,0.00,,,2.56,272.000000,,2013-07-08 00:43:00,
2013-07-07 19:53:00,77.0,70.0,-100.00,ENE,70,7.0,11.0,78,0.00,,,2.56,272.000000,,2013-07-08 00:53:00,
2013-07-07 20:01:00,73.0,68.0,-100.00,ENE,76,5.0,10.0,85,0.00,,,2.53,69.000000,,2013-07-08 01:01:00,
2013-07-07 20:22:00,73.0,68.0,-100.00,ENE,76,5.0,10.0,85,0.00,,,2.53,69.000000,,2013-07-08 01:22:00,
2013-07-07 20:32:00,73.0,68.0,-100.00,ENE,76,5.0,10.0,85,0.00,,,2.53,69.000000,,2013-07-08 01:32:00,
2013-07-07 20:43:00,73.0,68.0,-100.00,ENE,76,5.0,10.0,85,0.00,,,2.53,69.000000,,2013-07-08 01:43:00,
2013-07-07 20:53:00,73.0,68.0,-100.00,ENE,76,5.0,10.0,85,0.00,,,2.53,69.000000,,2013-07-08 01:53:00,
2013-07-07 21:01:00,72.0,69.0,-100.00,ESE,110,1.0,6.0,90,0.01,,,2.54,19.000000,,2013-07-08 02:01:00,
2013-07-07 21:33:00,72.0,69.0,-100.00,ESE,110,1.0,6.0,90,0.01,,,2.54,19.000000,,2013-07-08 02:33:00,
2013-07-07 21:43:00,72.0,69.0,-100.00,ESE,110,1.0,6.0,90,0.01,,,2.54,19.000000,,2013-07-08 02:43:00,
2013-07-07 21:52:00,72.0,69.0,-100.00,ESE,110,1.0,6.0,90,0.01,,,2.54,19.000000,,2013-07-08 02:52:00,
2013-07-07 22:01:00,69.0,68.0,-100.00,East,88,4.0,5.0,97,0.04,,,2.58,0.000000,,2013-07-08 03:01:00,
2013-07-07 22:23:00,69.0,68.0,-100.00,East,88,4.0,5.0,97,0.04,,,2.58,0.000000,,2013-07-08 03:23:00,
2013-07-07 22:34:00,69.0,68.0,-100.00,East,88,4.0,5.0,97,0.04,,,2.58,0.000000,,2013-07-08 03:34:00,
2013-07-07 22:42:00,69.0,68.0,-100.00,East,88,4.0,5.0,97,0.04,,,2.58,0.000000,,2013-07-08 03:42:00,
2013-07-07 22:52:00,69.0,68.0,-100.00,East,88,4.0,5.0,97,0.04,,,2.58,0.000000,,2013-07-08 03:52:00,
2013-07-07 23:01:00,68.0,67.0,-100.00,East,80,3.0,6.0,97,0.00,,,2.58,0.000000,,2013-07-08 04:01:00,
2013-07-07 23:22:00,68.0,67.0,-100.00,East,80,3.0,6.0,97,0.00,,,2.58,0.000000,,2013-07-08 04:22:00,
2013-07-07 23:33:00,68.0,67.0,-100.00,East,80,3.0,6.0,97,0.00,,,2.58,0.000000,,2013-07-08 04:33:00,
2013-07-07 23:42:00,68.0,67.0,-100.00,East,80,3.0,6.0,97,0.00,,,2.58,0.000000,,2013-07-08 04:42:00,
2013-07-07 23:53:00,68.0,67.0,-100.00,East,80,3.0,6.0,97,0.00,,,2.58,0.000000,,2013-07-08 04:53:00,